Location: Newark
(54.2500°N, 9.1833°E)
Time: 01:31:09
(UTC+00:00)

Transit 4A - Pass Details

Date: 24 December 2019
Orbit: 871 x 973 km, 66.8° (Epoch: 23 January)

Event Time Altitude Azimuth Distance (km) Brightness Sun altitude
Rises 17:05:45 0° 284° (WNW) 3,545 12.0 -16.4°
Reaches altitude 10° 17:08:46 10° 298° (WNW) 2,587 10.9 -16.8°
Maximum altitude 17:13:38 25° 352° (N) 1,727 9.2 -17.5°
Enters shadow 17:16:22 18° 30° (NNE) 2,027 9.3 -17.9°
